Date,TemperatureHighF,TemperatureAvgF,TemperatureLowF,DewpointHighF,DewpointAvgF,DewpointLowF,HumidityHigh,HumidityAvg,HumidityLow,PressureMaxIn,PressureMinIn,WindSpeedMaxMPH,WindSpeedAvgMPH,GustSpeedMaxMPH,PrecipitationSumIn
2013-2-1,77.0,59.6,45.5,43.4,33.9,23.3,63,42,14,30.12,30.01,7,4,0,0.00
2013-2-2,78.4,62.3,50.5,55.9,38.0,29.1,63,43,18,30.14,30.02,6,3,0,0.00
2013-2-3,72.7,59.9,50.5,50.5,46.1,41.3,85,62,36,30.07,29.92,6,3,0,0.00
2013-2-4,75.6,57.9,44.8,51.7,42.3,35.2,86,61,24,30.01,29.87,9,3,0,0.00
2013-2-5,69.3,53.8,43.2,50.2,44.1,35.6,98,72,40,30.01,29.87,10,4,0,0.00
2013-2-6,65.3,53.1,44.1,54.1,45.6,39.3,98,78,50,30.03,29.91,6,3,0,0.00
2013-2-7,67.5,51.4,37.9,48.9,41.9,34.4,94,73,38,30.05,29.88,11,4,0,0.00
2013-2-8,51.3,43.2,35.1,49.2,40.1,-49.7,98,91,1,29.91,29.79,10,4,0,0.38
2013-2-9,59.5,45.4,33.6,51.1,38.0,33.1,98,77,49,30.02,29.82,9,3,0,0.00
2013-2-10,58.8,46.2,34.2,53.2,37.2,29.2,98,72,45,30.02,29.89,9,3,0,0.00
2013-2-11,63.1,47.5,37.0,57.0,27.8,9.3,98,54,15,30.15,29.95,8,3,0,0.00
2013-2-12,63.5,47.7,33.1,38.7,22.2,7.2,92,41,11,30.26,30.12,8,4,0,0.00
2013-2-13,73.8,51.9,35.4,40.0,27.1,17.0,90,44,14,30.19,30.03,7,3,0,0.00
2013-2-14,77.4,56.8,39.6,39.5,28.7,18.1,85,40,11,30.12,29.94,12,4,0,0.00
2013-2-15,75.6,59.4,45.9,46.2,21.8,9.5,55,28,8,30.15,30.06,16,5,0,0.00
2013-2-16,80.2,59.9,43.5,32.9,13.3,-29.9,51,23,1,30.13,29.90,9,4,0,0.00
2013-2-17,71.4,55.0,42.6,47.4,29.9,15.2,98,45,14,29.93,29.80,10,4,0,0.00
2013-2-18,67.6,49.8,37.4,46.8,42.5,36.9,98,81,35,29.99,29.82,10,4,0,0.00
2013-2-19,52.7,45.8,40.5,48.8,9.2,-52.8,98,57,1,29.88,29.59,10,5,0,0.36
2013-2-20,57.7,44.0,34.9,48.8,19.7,-55.7,98,57,1,29.90,29.56,10,4,0,0.16
2013-2-21,60.8,46.6,36.5,46.4,35.4,31.8,98,67,37,30.02,29.85,8,3,0,0.00
2013-2-22,69.3,49.7,34.9,53.5,29.2,16.8,98,52,14,30.10,30.00,7,3,0,0.00
2013-2-23,66.9,50.8,36.9,51.8,34.2,28.2,98,57,24,30.08,29.79,9,4,0,0.00
2013-2-24,70.5,50.0,35.2,40.8,20.1,-14.0,94,42,3,30.11,29.87,9,4,0,0.00
2013-2-25,69.3,51.6,35.6,52.6,18.3,-1.5,97,34,6,30.14,29.95,8,4,0,0.00
2013-2-26,74.5,55.0,34.3,47.4,19.7,6.0,85,32,8,30.05,29.86,10,4,0,0.00
2013-2-27,72.7,54.4,39.2,37.5,15.3,-3.2,62,26,5,30.21,30.05,14,5,0,0.00
2013-2-28,78.6,58.8,41.0,45.6,14.8,0.3,64,23,5,30.25,30.14,13,5,0,0.00